Flag Weather past 2 weeks in Singapore, Singapore

Now
81 °F

Passing clouds.


Feels Like: 85 °F
Forecast: 79 / 91 °F
Wind: 1 mph from North

Location: Singapore / Paya Lebar

Current Time: Oct 31, 2014 at 7:28:42 PM

Latest Report: Oct 31, 2014 at 7:00 PM


Visibility: N/A

Pressure: 29.74 "Hg

Humidity: 79%

Dew point: 73 °F

Location of SingaporeLocation

Historic Weather in Singapore — Graph

°F

Singapore temperature yesterday

Maximum temperature yesterday: 93 °F (at 12:00 PM)
Minimum temperature yesterday: 81 °F (at 5:00 AM)
Average temperature yesterday: 85 °F

Past Weeks' High & Low Weather Summary

 TemperatureHumidityPressure
High93 °F (Oct 23, 3:00 PM)100% (Oct 19, 5:00 AM)29.95 "Hg (Oct 19, 5:00 AM)
Low77 °F (Oct 18, 7:00 PM)44% (Oct 24, 3:00 PM)29.71 "Hg (Oct 17, 3:00 PM)
Average84 °F75%29.82 "Hg
* Reported Oct 16 6:00 PM — Oct 31 6:00 PM, Singapore, Weather by CustomWeather, © 2014

Note: Actual official high and low records may vary slightly from our data, if they occured in-between our weather recording intervals... More about our weather records

Advertising

Singapore weather history for previous 24 hours

 ConditionsComfort  
Time TempWeatherWind HumidityBarometerVisibility
6:00 PM
Oct 31
79 °FLight rain. Partly sunny.3 mph84%29.71 "Hg6 mi
5:00 PM81 °FThunderstorms. Scattered clouds.14 mph84%29.71 "Hg5 mi
4:00 PM82 °FThundershowers. Broken clouds.12 mph74%29.71 "Hg5 mi
3:00 PM90 °FThundershowers. Broken clouds.8 mph63%29.71 "HgN/A
2:00 PM88 °FSprinkles. Broken clouds.9 mph75%29.74 "HgN/A
1:00 PM90 °FBroken clouds.2 mph63%29.77 "HgN/A
12:00 PM91 °FBroken clouds.6 mph59%29.80 "HgN/A
11:00 AM90 °FBroken clouds.6 mph59%29.83 "HgN/A
10:00 AM88 °FPartly sunny.3 mph66%29.83 "Hg5 mi
9:00 AM84 °FPartly sunny.5 mph79%29.83 "Hg5 mi
8:00 AM82 °FPartly sunny.1 mph84%29.80 "Hg5 mi
7:00 AM81 °FPartly sunny.1 mph84%29.77 "Hg5 mi
6:00 AM81 °FPassing clouds.1 mph84%29.77 "Hg5 mi
5:00 AM81 °FPassing clouds.1 mph84%29.74 "Hg5 mi
11:00 PM
Oct 30
81 °FPassing clouds.No wind89%29.83 "HgN/A
10:00 PM81 °FPassing clouds.No wind84%29.80 "HgN/A
9:00 PM81 °FPartly cloudy.1 mph84%29.80 "HgN/A
8:00 PM81 °FPassing clouds.1 mph84%29.77 "HgN/A
7:00 PM81 °FPartly cloudy.3 mph84%29.77 "HgN/A
Weather by CustomWeather, © 2014

See weather overviewHow to use our weather pages